Time,TemperatureF,DewpointF,PressureIn,WindDirection,WindDirectionDegrees,WindSpeedMPH,WindSpeedGustMPH,Humidity,HourlyPrecipIn,Conditions,Clouds,dailyrainin,SoftwareType,DateUTC
2013-01-22 00:00:00,10.0,7.2,30.03,West,259,7.0,7.0,88,0.00,,,0.00,LWC V2.11 B50,2013-01-22 05:00:00,
2013-01-22 00:01:00,10.0,7.2,30.03,WNW,283,2.0,9.0,88,0.00,,,0.00,LWC V2.11 B50,2013-01-22 05:01:00,
2013-01-22 00:02:00,9.9,7.1,30.03,WNW,289,6.0,9.0,88,0.00,,,0.00,LWC V2.11 B50,2013-01-22 05:02:00,
2013-01-22 00:07:00,9.8,7.0,30.03,NW,309,4.0,7.0,88,0.00,,,0.00,LWC V2.11 B50,2013-01-22 05:07:00,
2013-01-22 00:09:00,9.7,6.9,30.03,West,274,4.0,4.0,88,0.00,,,0.00,LWC V2.11 B50,2013-01-22 05:09:00,
2013-01-22 00:14:00,9.6,6.8,30.03,NW,309,3.0,6.0,88,0.00,,,0.00,LWC V2.11 B50,2013-01-22 05:14:00,
2013-01-22 00:19:00,9.5,6.7,30.02,West,276,1.0,7.0,88,0.00,,,0.00,LWC V2.11 B50,2013-01-22 05:19:00,
2013-01-22 00:24:00,9.4,6.6,30.03,NNW,334,0.0,5.0,88,0.00,,,0.00,LWC V2.11 B50,2013-01-22 05:24:00,
2013-01-22 00:29:00,9.2,6.4,30.03,WNW,283,2.0,6.0,88,0.00,,,0.00,LWC V2.11 B50,2013-01-22 05:29:00,
2013-01-22 00:34:00,9.1,6.3,30.03,WNW,293,1.0,1.0,88,0.00,,,0.00,LWC V2.11 B50,2013-01-22 05:34:00,
2013-01-22 00:39:00,9.1,6.3,30.03,WNW,293,2.0,8.0,88,0.00,,,0.00,LWC V2.11 B50,2013-01-22 05:39:00,
2013-01-22 00:44:00,8.9,6.1,30.03,West,274,4.0,6.0,88,0.00,,,0.00,LWC V2.11 B50,2013-01-22 05:44:00,
2013-01-22 00:49:00,8.9,6.1,30.03,WNW,290,9.0,9.0,88,0.00,,,0.00,LWC V2.11 B50,2013-01-22 05:49:00,
2013-01-22 00:54:00,8.8,6.0,30.03,NW,304,2.0,5.0,88,0.00,,,0.00,LWC V2.11 B50,2013-01-22 05:54:00,
2013-01-22 00:59:00,8.8,6.0,30.03,West,281,1.0,9.0,88,0.00,,,0.00,LWC V2.11 B50,2013-01-22 05:59:00,
2013-01-22 01:04:00,8.7,5.9,30.03,West,274,1.0,10.0,88,0.00,,,0.00,LWC V2.11 B50,2013-01-22 06:04:00,
2013-01-22 01:09:00,8.7,5.9,30.03,SW,222,3.0,10.0,88,0.00,,,0.00,LWC V2.11 B50,2013-01-22 06:09:00,
2013-01-22 01:14:00,8.6,5.5,30.03,NW,318,0.0,3.0,87,0.00,,,0.00,LWC V2.11 B50,2013-01-22 06:14:00,
2013-01-22 01:19:00,8.4,5.3,30.03,West,278,5.0,5.0,87,0.00,,,0.00,LWC V2.11 B50,2013-01-22 06:19:00,
2013-01-22 01:24:00,8.2,4.6,30.04,WNW,290,2.0,4.0,85,0.00,,,0.00,LWC V2.11 B50,2013-01-22 06:24:00,
2013-01-22 01:29:00,8.0,4.2,30.04,WSW,249,13.0,13.0,84,0.00,,,0.00,LWC V2.11 B50,2013-01-22 06:29:00,
2013-01-22 01:34:00,7.9,3.8,30.05,WNW,297,5.0,11.0,83,0.00,,,0.00,LWC V2.11 B50,2013-01-22 06:34:00,
2013-01-22 01:39:00,7.8,3.7,30.04,WNW,295,6.0,7.0,83,0.00,,,0.00,LWC V2.11 B50,2013-01-22 06:39:00,
2013-01-22 01:44:00,7.7,3.6,30.05,WNW,297,8.0,8.0,83,0.00,,,0.00,LWC V2.11 B50,2013-01-22 06:44:00,
2013-01-22 01:49:00,7.6,3.3,30.05,WNW,300,3.0,12.0,82,0.00,,,0.00,LWC V2.11 B50,2013-01-22 06:49:00,
2013-01-22 01:54:00,7.7,3.1,30.05,West,276,5.0,10.0,81,0.00,,,0.00,LWC V2.11 B50,2013-01-22 06:54:00,
2013-01-22 01:59:00,7.6,2.7,30.05,WNW,295,3.0,9.0,80,0.00,,,0.00,LWC V2.11 B50,2013-01-22 06:59:00,
2013-01-22 02:04:00,7.6,2.7,30.05,NNW,344,2.0,7.0,80,0.00,,,0.00,LWC V2.11 B50,2013-01-22 07:04:00,
2013-01-22 02:09:00,7.6,3.0,30.06,WNW,287,10.0,11.0,81,0.00,,,0.00,LWC V2.11 B50,2013-01-22 07:09:00,
2013-01-22 02:14:00,7.7,3.1,30.06,West,276,3.0,11.0,81,0.00,,,0.00,LWC V2.11 B50,2013-01-22 07:14:00,
2013-01-22 02:19:00,7.6,3.3,30.06,NW,307,2.0,4.0,82,0.00,,,0.00,LWC V2.11 B50,2013-01-22 07:19:00,
2013-01-22 02:24:00,7.5,3.2,30.06,WNW,297,2.0,7.0,82,0.00,,,0.00,LWC V2.11 B50,2013-01-22 07:24:00,
2013-01-22 02:29:00,7.5,3.2,30.06,West,273,2.0,5.0,82,0.00,,,0.00,LWC V2.11 B50,2013-01-22 07:29:00,
2013-01-22 02:34:00,7.4,3.3,30.07,NW,311,6.0,10.0,83,0.00,,,0.00,LWC V2.11 B50,2013-01-22 07:34:00,
2013-01-22 02:39:00,7.3,3.5,30.07,WNW,288,1.0,3.0,84,0.00,,,0.00,LWC V2.11 B50,2013-01-22 07:39:00,
2013-01-22 02:44:00,7.3,3.5,30.07,WNW,285,7.0,7.0,84,0.00,,,0.00,LWC V2.11 B50,2013-01-22 07:44:00,
2013-01-22 02:49:00,7.4,3.9,30.07,WNW,300,2.0,4.0,85,0.00,,,0.00,LWC V2.11 B50,2013-01-22 07:49:00,
2013-01-22 02:54:00,7.3,3.8,30.07,West,262,5.0,7.0,85,0.00,,,0.00,LWC V2.11 B50,2013-01-22 07:54:00,
2013-01-22 02:59:00,7.3,3.8,30.07,West,262,6.0,8.0,85,0.00,,,0.00,LWC V2.11 B50,2013-01-22 07:59:00,
2013-01-22 03:04:00,7.3,3.8,30.07,WNW,297,0.0,7.0,85,0.00,,,0.00,LWC V2.11 B50,2013-01-22 08:04:00,
2013-01-22 03:09:00,7.3,4.0,30.07,WNW,290,4.0,7.0,86,0.00,,,0.00,LWC V2.11 B50,2013-01-22 08:09:00,
2013-01-22 03:14:00,7.3,4.0,30.08,WNW,297,3.0,8.0,86,0.00,,,0.00,LWC V2.11 B50,2013-01-22 08:14:00,
2013-01-22 03:19:00,7.3,4.0,30.08,WNW,302,1.0,5.0,86,0.00,,,0.00,LWC V2.11 B50,2013-01-22 08:19:00,
2013-01-22 03:24:00,7.3,4.0,30.08,WNW,298,2.0,6.0,86,0.00,,,0.00,LWC V2.11 B50,2013-01-22 08:24:00,
2013-01-22 03:29:00,7.2,3.9,30.08,WNW,291,5.0,5.0,86,0.00,,,0.00,LWC V2.11 B50,2013-01-22 08:29:00,
2013-01-22 03:34:00,7.1,3.6,30.08,NNW,330,1.0,8.0,85,0.00,,,0.00,LWC V2.11 B50,2013-01-22 08:34:00,
2013-01-22 03:39:00,6.9,3.4,30.08,WNW,289,1.0,4.0,85,0.00,,,0.00,LWC V2.11 B50,2013-01-22 08:39:00,
2013-01-22 03:44:00,6.8,3.0,30.08,WNW,294,5.0,10.0,84,0.00,,,0.00,LWC V2.11 B50,2013-01-22 08:44:00,
2013-01-22 03:49:00,6.8,2.8,30.08,West,278,2.0,8.0,83,0.00,,,0.00,LWC V2.11 B50,2013-01-22 08:49:00,
2013-01-22 03:54:00,6.8,2.5,30.08,WNW,293,1.0,2.0,82,0.00,,,0.00,LWC V2.11 B50,2013-01-22 08:54:00,
2013-01-22 03:59:00,6.8,2.8,30.08,NW,312,3.0,4.0,83,0.00,,,0.00,LWC V2.11 B50,2013-01-22 08:59:00,
2013-01-22 04:04:00,6.7,2.9,30.08,NW,318,1.0,4.0,84,0.00,,,0.00,LWC V2.11 B50,2013-01-22 09:04:00,
2013-01-22 04:09:00,6.7,3.2,30.08,WSW,238,5.0,8.0,85,0.00,,,0.00,LWC V2.11 B50,2013-01-22 09:09:00,
2013-01-22 04:14:00,6.7,3.4,30.08,WNW,290,1.0,5.0,86,0.00,,,0.00,LWC V2.11 B50,2013-01-22 09:14:00,
2013-01-22 04:19:00,6.6,3.3,30.08,WNW,291,1.0,7.0,86,0.00,,,0.00,LWC V2.11 B50,2013-01-22 09:19:00,
2013-01-22 04:24:00,6.6,3.3,30.08,NW,307,2.0,7.0,86,0.00,,,0.00,LWC V2.11 B50,2013-01-22 09:24:00,
2013-01-22 04:29:00,6.6,3.3,30.08,NW,326,4.0,9.0,86,0.00,,,0.00,LWC V2.11 B50,2013-01-22 09:29:00,
2013-01-22 04:34:00,6.6,3.3,30.09,West,270,3.0,4.0,86,0.00,,,0.00,LWC V2.11 B50,2013-01-22 09:34:00,
2013-01-22 04:39:00,6.6,3.6,30.09,WNW,294,1.0,6.0,87,0.00,,,0.00,LWC V2.11 B50,2013-01-22 09:39:00,
2013-01-22 04:44:00,6.7,3.4,30.09,WNW,302,2.0,4.0,86,0.00,,,0.00,LWC V2.11 B50,2013-01-22 09:44:00,
2013-01-22 04:49:00,6.7,3.4,30.09,WNW,300,2.0,8.0,86,0.00,,,0.00,LWC V2.11 B50,2013-01-22 09:49:00,
2013-01-22 04:54:00,6.7,3.4,30.09,WNW,288,2.0,10.0,86,0.00,,,0.00,LWC V2.11 B50,2013-01-22 09:54:00,
2013-01-22 04:59:00,6.7,3.7,30.09,WNW,293,3.0,3.0,87,0.00,,,0.00,LWC V2.11 B50,2013-01-22 09:59:00,
2013-01-22 05:04:00,6.6,3.6,30.09,West,277,1.0,3.0,87,0.00,,,0.00,LWC V2.11 B50,2013-01-22 10:04:00,
2013-01-22 05:09:00,6.6,3.6,30.09,WNW,297,1.0,7.0,87,0.00,,,0.00,LWC V2.11 B50,2013-01-22 10:09:00,
2013-01-22 05:14:00,6.6,3.8,30.09,West,262,3.0,3.0,88,0.00,,,0.00,LWC V2.11 B50,2013-01-22 10:14:00,
2013-01-22 05:19:00,6.6,3.8,30.10,NW,307,1.0,10.0,88,0.00,,,0.00,LWC V2.11 B50,2013-01-22 10:19:00,
2013-01-22 05:24:00,6.6,3.8,30.10,WNW,284,2.0,6.0,88,0.00,,,0.00,LWC V2.11 B50,2013-01-22 10:24:00,
2013-01-22 05:29:00,6.7,3.9,30.10,West,276,1.0,1.0,88,0.00,,,0.00,LWC V2.11 B50,2013-01-22 10:29:00,
2013-01-22 05:34:00,6.7,3.9,30.10,West,266,6.0,9.0,88,0.00,,,0.00,LWC V2.11 B50,2013-01-22 10:34:00,
2013-01-22 05:39:00,6.7,3.9,30.10,WNW,298,2.0,2.0,88,0.00,,,0.00,LWC V2.11 B50,2013-01-22 10:39:00,
2013-01-22 05:44:00,6.7,3.9,30.10,WNW,298,1.0,3.0,88,0.00,,,0.00,LWC V2.11 B50,2013-01-22 10:44:00,
2013-01-22 05:49:00,6.7,3.9,30.10,WNW,294,3.0,5.0,88,0.00,,,0.00,LWC V2.11 B50,2013-01-22 10:49:00,
2013-01-22 05:54:00,6.7,3.9,30.11,West,271,6.0,11.0,88,0.00,,,0.00,LWC V2.11 B50,2013-01-22 10:54:00,
2013-01-22 05:59:00,6.6,3.8,30.11,West,264,4.0,4.0,88,0.00,,,0.00,LWC V2.11 B50,2013-01-22 10:59:00,
2013-01-22 06:04:00,6.5,3.7,30.11,WNW,300,4.0,8.0,88,0.00,,,0.00,LWC V2.11 B50,2013-01-22 11:04:00,
2013-01-22 06:09:00,6.5,3.7,30.11,WSW,246,3.0,11.0,88,0.00,,,0.00,LWC V2.11 B50,2013-01-22 11:09:00,
2013-01-22 06:14:00,6.4,3.6,30.11,WNW,285,2.0,4.0,88,0.00,,,0.00,LWC V2.11 B50,2013-01-22 11:14:00,
2013-01-22 06:19:00,6.4,3.6,30.12,WNW,287,6.0,10.0,88,0.00,,,0.00,LWC V2.11 B50,2013-01-22 11:19:00,
2013-01-22 06:24:00,6.2,3.4,30.12,West,274,10.0,12.0,88,0.00,,,0.00,LWC V2.11 B50,2013-01-22 11:24:00,
2013-01-22 06:29:00,6.1,3.1,30.12,NNW,338,3.0,8.0,87,0.00,,,0.00,LWC V2.11 B50,2013-01-22 11:29:00,
2013-01-22 06:34:00,5.9,2.4,30.13,WNW,293,5.0,13.0,85,0.00,,,0.00,LWC V2.11 B50,2013-01-22 11:34:00,
2013-01-22 06:39:00,5.8,2.3,30.13,NW,322,6.0,11.0,85,0.00,,,0.00,LWC V2.11 B50,2013-01-22 11:39:00,
2013-01-22 06:44:00,5.7,2.2,30.13,West,264,4.0,14.0,85,0.00,,,0.00,LWC V2.11 B50,2013-01-22 11:44:00,
2013-01-22 06:49:00,5.6,2.1,30.13,NNW,345,2.0,5.0,85,0.00,,,0.00,LWC V2.11 B50,2013-01-22 11:49:00,
2013-01-22 06:54:00,5.5,2.2,30.13,West,280,3.0,6.0,86,0.00,,,0.00,LWC V2.11 B50,2013-01-22 11:54:00,
2013-01-22 06:59:00,5.5,2.5,30.14,West,269,4.0,9.0,87,0.00,,,0.00,LWC V2.11 B50,2013-01-22 11:59:00,
2013-01-22 07:04:00,5.5,2.5,30.14,WNW,289,5.0,7.0,87,0.00,,,0.00,LWC V2.11 B50,2013-01-22 12:04:00,
2013-01-22 07:09:00,5.4,2.4,30.14,WNW,287,3.0,14.0,87,0.00,,,0.00,LWC V2.11 B50,2013-01-22 12:09:00,
2013-01-22 07:14:00,5.4,2.4,30.14,West,266,3.0,9.0,87,0.00,,,0.00,LWC V2.11 B50,2013-01-22 12:14:00,
2013-01-22 07:19:00,5.3,2.3,30.14,WSW,249,6.0,11.0,87,0.00,,,0.00,LWC V2.11 B50,2013-01-22 12:19:00,
2013-01-22 07:24:00,5.2,2.4,30.14,WNW,301,0.0,12.0,88,0.00,,,0.00,LWC V2.11 B50,2013-01-22 12:24:00,
2013-01-22 07:29:00,5.2,2.4,30.14,WNW,283,5.0,9.0,88,0.00,,,0.00,LWC V2.11 B50,2013-01-22 12:29:00,
2013-01-22 07:34:00,5.2,2.4,30.15,WNW,291,1.0,11.0,88,0.00,,,0.00,LWC V2.11 B50,2013-01-22 12:34:00,
2013-01-22 07:39:00,5.2,2.4,30.15,West,277,2.0,13.0,88,0.00,,,0.00,LWC V2.11 B50,2013-01-22 12:39:00,
2013-01-22 07:44:00,5.2,2.4,30.15,WNW,288,4.0,10.0,88,0.00,,,0.00,LWC V2.11 B50,2013-01-22 12:44:00,
2013-01-22 07:50:00,5.2,2.4,30.15,WNW,291,0.0,5.0,88,0.00,,,0.00,LWC V2.11 B50,2013-01-22 12:50:00,
2013-01-22 07:55:00,5.2,2.4,30.15,West,269,2.0,8.0,88,0.00,,,0.00,LWC V2.11 B50,2013-01-22 12:55:00,
2013-01-22 08:00:00,5.2,2.4,30.15,NW,305,4.0,6.0,88,0.00,,,0.00,LWC V2.11 B50,2013-01-22 13:00:00,
2013-01-22 08:05:00,5.1,2.3,30.15,WSW,239,5.0,11.0,88,0.00,,,0.00,LWC V2.11 B50,2013-01-22 13:05:00,
2013-01-22 08:10:00,5.1,2.3,30.16,West,277,8.0,13.0,88,0.00,,,0.00,LWC V2.11 B50,2013-01-22 13:10:00,
2013-01-22 08:15:00,5.1,2.3,30.16,WNW,293,2.0,4.0,88,0.00,,,0.00,LWC V2.11 B50,2013-01-22 13:15:00,
2013-01-22 08:20:00,5.1,2.3,30.16,WNW,302,0.0,7.0,88,0.00,,,0.00,LWC V2.11 B50,2013-01-22 13:20:00,
2013-01-22 08:25:00,5.1,2.3,30.17,WNW,283,5.0,6.0,88,0.00,,,0.00,LWC V2.11 B50,2013-01-22 13:25:00,
2013-01-22 08:30:00,5.1,2.3,30.17,WNW,293,4.0,5.0,88,0.00,,,0.00,LWC V2.11 B50,2013-01-22 13:30:00,
2013-01-22 08:36:00,5.1,2.3,30.17,West,271,7.0,13.0,88,0.00,,,0.00,LWC V2.11 B50,2013-01-22 13:36:00,
2013-01-22 08:41:00,5.1,2.3,30.17,WNW,293,8.0,13.0,88,0.00,,,0.00,LWC V2.11 B50,2013-01-22 13:41:00,
2013-01-22 08:46:00,5.1,2.3,30.17,WNW,294,3.0,7.0,88,0.00,,,0.00,LWC V2.11 B50,2013-01-22 13:46:00,
2013-01-22 08:51:00,5.1,2.3,30.18,West,259,3.0,10.0,88,0.00,,,0.00,LWC V2.11 B50,2013-01-22 13:51:00,
2013-01-22 08:56:00,5.1,2.3,30.18,WNW,294,3.0,6.0,88,0.00,,,0.00,LWC V2.11 B50,2013-01-22 13:56:00,
2013-01-22 09:01:00,5.2,2.4,30.18,WNW,295,4.0,9.0,88,0.00,,,0.00,LWC V2.11 B50,2013-01-22 14:01:00,
2013-01-22 09:06:00,5.1,2.3,30.18,WNW,293,2.0,14.0,88,0.00,,,0.00,LWC V2.11 B50,2013-01-22 14:06:00,
2013-01-22 09:11:00,5.2,2.4,30.18,WNW,285,6.0,10.0,88,0.00,,,0.00,LWC V2.11 B50,2013-01-22 14:11:00,
2013-01-22 09:16:00,5.3,2.5,30.18,West,262,2.0,5.0,88,0.00,,,0.00,LWC V2.11 B50,2013-01-22 14:16:00,
2013-01-22 09:21:00,5.4,2.6,30.19,West,274,5.0,8.0,88,0.00,,,0.00,LWC V2.11 B50,2013-01-22 14:21:00,
2013-01-22 09:26:00,5.4,2.6,30.19,WNW,286,3.0,9.0,88,0.00,,,0.00,LWC V2.11 B50,2013-01-22 14:26:00,
2013-01-22 09:31:00,5.4,2.6,30.19,NW,308,4.0,14.0,88,0.00,,,0.00,LWC V2.11 B50,2013-01-22 14:31:00,
2013-01-22 09:36:00,5.4,2.6,30.19,NW,317,3.0,9.0,88,0.00,,,0.00,LWC V2.11 B50,2013-01-22 14:36:00,
2013-01-22 09:41:00,5.4,2.6,30.20,WNW,282,3.0,5.0,88,0.00,,,0.00,LWC V2.11 B50,2013-01-22 14:41:00,
2013-01-22 09:46:00,5.5,2.7,30.20,WNW,297,9.0,15.0,88,0.00,,,0.00,LWC V2.11 B50,2013-01-22 14:46:00,
2013-01-22 09:51:00,5.5,2.7,30.20,WNW,301,5.0,9.0,88,0.00,,,0.00,LWC V2.11 B50,2013-01-22 14:51:00,
2013-01-22 09:56:00,5.5,2.7,30.20,West,271,1.0,5.0,88,0.00,,,0.00,LWC V2.11 B50,2013-01-22 14:56:00,
2013-01-22 10:01:00,5.4,2.4,30.21,WNW,297,4.0,16.0,87,0.00,,,0.00,LWC V2.11 B50,2013-01-22 15:01:00,
2013-01-22 10:06:00,5.3,2.3,30.21,West,281,2.0,16.0,87,0.00,,,0.00,LWC V2.11 B50,2013-01-22 15:06:00,
2013-01-22 10:11:00,5.4,2.4,30.21,WNW,294,2.0,9.0,87,0.00,,,0.00,LWC V2.11 B50,2013-01-22 15:11:00,
2013-01-22 10:16:00,5.4,2.4,30.21,WSW,250,12.0,15.0,87,0.00,,,0.00,LWC V2.11 B50,2013-01-22 15:16:00,
2013-01-22 10:21:00,5.4,2.4,30.22,WNW,284,10.0,11.0,87,0.00,,,0.00,LWC V2.11 B50,2013-01-22 15:21:00,
2013-01-22 10:26:00,5.3,2.3,30.22,NW,314,5.0,13.0,87,0.00,,,0.00,LWC V2.11 B50,2013-01-22 15:26:00,
2013-01-22 10:31:00,5.3,2.5,30.22,West,280,6.0,6.0,88,0.00,,,0.00,LWC V2.11 B50,2013-01-22 15:31:00,
2013-01-22 10:36:00,5.4,2.6,30.22,West,262,6.0,9.0,88,0.00,,,0.00,LWC V2.11 B50,2013-01-22 15:36:00,
2013-01-22 10:41:00,5.6,2.8,30.23,WNW,290,5.0,15.0,88,0.00,,,0.00,LWC V2.11 B50,2013-01-22 15:41:00,
2013-01-22 10:46:00,5.6,2.6,30.23,NW,313,3.0,9.0,87,0.00,,,0.00,LWC V2.11 B50,2013-01-22 15:46:00,
2013-01-22 10:51:00,5.6,2.6,30.23,West,276,6.0,12.0,87,0.00,,,0.00,LWC V2.11 B50,2013-01-22 15:51:00,
2013-01-22 10:56:00,5.7,2.7,30.23,WNW,291,4.0,11.0,87,0.00,,,0.00,LWC V2.11 B50,2013-01-22 15:56:00,
2013-01-22 11:01:00,5.6,2.6,30.23,WNW,297,6.0,14.0,87,0.00,,,0.00,LWC V2.11 B50,2013-01-22 16:01:00,
2013-01-22 11:06:00,5.6,2.6,30.23,NW,316,1.0,3.0,87,0.00,,,0.00,LWC V2.11 B50,2013-01-22 16:06:00,
2013-01-22 11:11:00,5.9,3.1,30.23,West,278,1.0,7.0,88,0.00,,,0.00,LWC V2.11 B50,2013-01-22 16:11:00,
2013-01-22 11:16:00,6.1,3.1,30.23,West,276,12.0,13.0,87,0.00,,,0.00,LWC V2.11 B50,2013-01-22 16:16:00,
2013-01-22 11:21:00,5.9,2.9,30.23,West,276,4.0,11.0,87,0.00,,,0.00,LWC V2.11 B50,2013-01-22 16:21:00,
2013-01-22 11:26:00,6.0,3.0,30.23,WNW,284,3.0,5.0,87,0.00,,,0.00,LWC V2.11 B50,2013-01-22 16:26:00,
2013-01-22 11:31:00,6.4,3.6,30.23,WNW,294,3.0,5.0,88,0.00,,,0.00,LWC V2.11 B50,2013-01-22 16:31:00,
2013-01-22 11:36:00,6.3,3.3,30.23,North,349,2.0,9.0,87,0.00,,,0.00,LWC V2.11 B50,2013-01-22 16:36:00,
2013-01-22 11:41:00,6.1,2.8,30.23,West,277,5.0,12.0,86,0.00,,,0.00,LWC V2.11 B50,2013-01-22 16:41:00,
2013-01-22 11:46:00,6.2,3.2,30.23,NW,305,3.0,6.0,87,0.00,,,0.00,LWC V2.11 B50,2013-01-22 16:46:00,
2013-01-22 11:51:00,6.2,3.2,30.23,NW,309,5.0,11.0,87,0.00,,,0.00,LWC V2.11 B50,2013-01-22 16:51:00,
2013-01-22 11:56:00,5.9,2.6,30.23,WNW,289,3.0,11.0,86,0.00,,,0.00,LWC V2.11 B50,2013-01-22 16:56:00,
2013-01-22 12:01:00,6.1,3.1,30.22,NW,312,2.0,8.0,87,0.00,,,0.00,LWC V2.11 B50,2013-01-22 17:01:00,
2013-01-22 12:06:00,6.2,3.2,30.22,West,280,3.0,12.0,87,0.00,,,0.00,LWC V2.11 B50,2013-01-22 17:06:00,
2013-01-22 12:11:00,6.2,3.2,30.22,WNW,290,2.0,10.0,87,0.00,,,0.00,LWC V2.11 B50,2013-01-22 17:11:00,
2013-01-22 12:16:00,6.3,3.3,30.22,WNW,301,4.0,10.0,87,0.00,,,0.00,LWC V2.11 B50,2013-01-22 17:16:00,
2013-01-22 12:21:00,6.5,3.5,30.22,NW,307,1.0,11.0,87,0.00,,,0.00,LWC V2.11 B50,2013-01-22 17:21:00,
2013-01-22 12:26:00,6.6,3.3,30.22,WNW,287,5.0,13.0,86,0.00,,,0.00,LWC V2.11 B50,2013-01-22 17:26:00,
2013-01-22 12:31:00,6.7,3.4,30.22,WNW,294,6.0,9.0,86,0.00,,,0.00,LWC V2.11 B50,2013-01-22 17:31:00,
2013-01-22 12:36:00,6.8,3.5,30.22,WNW,287,7.0,10.0,86,0.00,,,0.00,LWC V2.11 B50,2013-01-22 17:36:00,
2013-01-22 12:41:00,6.7,3.4,30.22,WNW,293,6.0,9.0,86,0.00,,,0.00,LWC V2.11 B50,2013-01-22 17:41:00,
2013-01-22 12:46:00,6.6,3.1,30.22,SW,236,13.0,14.0,85,0.00,,,0.00,LWC V2.11 B50,2013-01-22 17:46:00,
2013-01-22 12:51:00,6.5,3.2,30.22,West,280,15.0,15.0,86,0.00,,,0.00,LWC V2.11 B50,2013-01-22 17:51:00,
2013-01-22 12:56:00,6.6,3.3,30.22,WNW,297,2.0,5.0,86,0.00,,,0.00,LWC V2.11 B50,2013-01-22 17:56:00,
2013-01-22 13:01:00,6.4,2.9,30.22,WSW,240,5.0,15.0,85,0.00,,,0.00,LWC V2.11 B50,2013-01-22 18:01:00,
2013-01-22 13:06:00,6.4,3.1,30.21,West,262,6.0,10.0,86,0.00,,,0.00,LWC V2.11 B50,2013-01-22 18:06:00,
2013-01-22 13:11:00,6.5,3.2,30.21,NW,324,1.0,10.0,86,0.00,,,0.00,LWC V2.11 B50,2013-01-22 18:11:00,
2013-01-22 13:16:00,6.6,3.1,30.21,North,0,7.0,17.0,85,0.00,,,0.00,LWC V2.11 B50,2013-01-22 18:16:00,
2013-01-22 13:21:00,6.3,2.8,30.21,West,270,3.0,10.0,85,0.00,,,0.00,LWC V2.11 B50,2013-01-22 18:21:00,
2013-01-22 13:26:00,6.2,2.9,30.21,NNW,329,2.0,7.0,86,0.00,,,0.00,LWC V2.11 B50,2013-01-22 18:26:00,
2013-01-22 13:31:00,6.3,3.0,30.21,WNW,288,6.0,12.0,86,0.00,,,0.00,LWC V2.11 B50,2013-01-22 18:31:00,
2013-01-22 13:36:00,6.1,2.8,30.21,WNW,287,4.0,14.0,86,0.00,,,0.00,LWC V2.11 B50,2013-01-22 18:36:00,
2013-01-22 13:41:00,5.9,2.6,30.21,WNW,293,5.0,10.0,86,0.00,,,0.00,LWC V2.11 B50,2013-01-22 18:41:00,
2013-01-22 13:46:00,5.9,2.6,30.21,WNW,291,4.0,6.0,86,0.00,,,0.00,LWC V2.11 B50,2013-01-22 18:46:00,
2013-01-22 13:51:00,5.9,2.9,30.21,WNW,291,6.0,7.0,87,0.00,,,0.00,LWC V2.11 B50,2013-01-22 18:51:00,
2013-01-22 13:56:00,6.3,3.3,30.21,WSW,242,15.0,15.0,87,0.00,,,0.00,LWC V2.11 B50,2013-01-22 18:56:00,
2013-01-22 14:01:00,6.5,3.2,30.21,WNW,303,3.0,7.0,86,0.00,,,0.00,LWC V2.11 B50,2013-01-22 19:01:00,
2013-01-22 14:06:00,6.6,3.1,30.21,NNW,331,2.0,13.0,85,0.00,,,0.00,LWC V2.11 B50,2013-01-22 19:06:00,
2013-01-22 14:11:00,6.8,3.3,30.21,West,267,15.0,15.0,85,0.00,,,0.00,LWC V2.11 B50,2013-01-22 19:11:00,
2013-01-22 14:16:00,6.5,2.7,30.21,SW,228,2.0,13.0,84,0.00,,,0.00,LWC V2.11 B50,2013-01-22 19:16:00,
2013-01-22 14:21:00,6.1,2.3,30.22,North,356,2.0,16.0,84,0.00,,,0.00,LWC V2.11 B50,2013-01-22 19:21:00,
2013-01-22 14:26:00,5.9,2.1,30.22,WNW,285,4.0,17.0,84,0.00,,,0.00,LWC V2.11 B50,2013-01-22 19:26:00,
2013-01-22 14:31:00,5.7,1.9,30.22,West,263,3.0,11.0,84,0.00,,,0.00,LWC V2.11 B50,2013-01-22 19:31:00,
2013-01-22 14:36:00,5.6,1.8,30.22,WNW,285,6.0,10.0,84,0.00,,,0.00,LWC V2.11 B50,2013-01-22 19:36:00,
2013-01-22 14:41:00,5.5,1.7,30.22,WSW,245,5.0,16.0,84,0.00,,,0.00,LWC V2.11 B50,2013-01-22 19:41:00,
2013-01-22 14:46:00,5.5,1.7,30.23,West,279,4.0,8.0,84,0.00,,,0.00,LWC V2.11 B50,2013-01-22 19:46:00,
2013-01-22 14:51:00,5.5,2.0,30.23,WNW,300,5.0,11.0,85,0.00,,,0.00,LWC V2.11 B50,2013-01-22 19:51:00,
2013-01-22 14:56:00,5.5,2.0,30.23,WSW,257,2.0,9.0,85,0.00,,,0.00,LWC V2.11 B50,2013-01-22 19:56:00,
2013-01-22 15:01:00,5.5,2.0,30.23,NW,304,2.0,5.0,85,0.00,,,0.00,LWC V2.11 B50,2013-01-22 20:01:00,
2013-01-22 15:06:00,5.7,2.4,30.23,WSW,253,4.0,4.0,86,0.00,,,0.00,LWC V2.11 B50,2013-01-22 20:06:00,
2013-01-22 15:11:00,5.9,2.6,30.23,West,263,1.0,3.0,86,0.00,,,0.00,LWC V2.11 B50,2013-01-22 20:11:00,
2013-01-22 15:17:00,6.0,2.7,30.23,West,264,5.0,9.0,86,0.00,,,0.00,LWC V2.11 B50,2013-01-22 20:17:00,
2013-01-22 15:22:00,6.0,2.5,30.24,NW,324,1.0,10.0,85,0.00,,,0.00,LWC V2.11 B50,2013-01-22 20:22:00,
2013-01-22 15:27:00,6.2,2.9,30.24,NW,316,1.0,5.0,86,0.00,,,0.00,LWC V2.11 B50,2013-01-22 20:27:00,
2013-01-22 15:33:00,6.2,2.9,30.24,WSW,258,5.0,9.0,86,0.00,,,0.00,LWC V2.11 B50,2013-01-22 20:33:00,
2013-01-22 15:38:00,6.3,3.0,30.24,WNW,284,1.0,7.0,86,0.00,,,0.00,LWC V2.11 B50,2013-01-22 20:38:00,
2013-01-22 15:43:00,6.5,3.2,30.24,WNW,283,2.0,4.0,86,0.00,,,0.00,LWC V2.11 B50,2013-01-22 20:43:00,
2013-01-22 15:48:00,6.6,3.6,30.24,WNW,294,2.0,2.0,87,0.00,,,0.00,LWC V2.11 B50,2013-01-22 20:48:00,
2013-01-22 15:53:00,6.5,3.2,30.25,WNW,291,2.0,3.0,86,0.00,,,0.00,LWC V2.11 B50,2013-01-22 20:53:00,
2013-01-22 15:58:00,6.5,3.5,30.25,NNE,15,0.0,4.0,87,0.00,,,0.00,LWC V2.11 B50,2013-01-22 20:58:00,
2013-01-22 16:03:00,6.5,3.5,30.25,WNW,297,1.0,9.0,87,0.00,,,0.00,LWC V2.11 B50,2013-01-22 21:03:00,
2013-01-22 16:08:00,6.5,3.5,30.25,WSW,256,4.0,8.0,87,0.00,,,0.00,LWC V2.11 B50,2013-01-22 21:08:00,
2013-01-22 16:13:00,6.5,3.5,30.25,West,277,3.0,4.0,87,0.00,,,0.00,LWC V2.11 B50,2013-01-22 21:13:00,
2013-01-22 16:18:00,6.5,3.5,30.25,WNW,293,6.0,8.0,87,0.00,,,0.00,LWC V2.11 B50,2013-01-22 21:18:00,
2013-01-22 16:23:00,6.4,3.4,30.25,WNW,286,6.0,6.0,87,0.00,,,0.00,LWC V2.11 B50,2013-01-22 21:23:00,
2013-01-22 16:28:00,6.4,3.4,30.25,WNW,291,2.0,6.0,87,0.00,,,0.00,LWC V2.11 B50,2013-01-22 21:28:00,
2013-01-22 16:33:00,6.4,3.4,30.25,WNW,297,3.0,7.0,87,0.00,,,0.00,LWC V2.11 B50,2013-01-22 21:33:00,
2013-01-22 16:37:00,6.4,3.4,30.25,West,262,5.0,10.0,87,0.00,,,0.00,LWC V2.11 B50,2013-01-22 21:37:00,
2013-01-22 16:42:00,6.3,3.3,30.25,West,262,10.0,14.0,87,0.00,,,0.00,LWC V2.11 B50,2013-01-22 21:42:00,
2013-01-22 16:48:00,6.2,3.2,30.25,West,267,5.0,14.0,87,0.00,,,0.00,LWC V2.11 B50,2013-01-22 21:48:00,
2013-01-22 16:53:00,6.1,3.1,30.25,West,281,4.0,8.0,87,0.00,,,0.00,LWC V2.11 B50,2013-01-22 21:53:00,
2013-01-22 16:58:00,6.1,3.1,30.25,West,260,2.0,3.0,87,0.00,,,0.00,LWC V2.11 B50,2013-01-22 21:58:00,
2013-01-22 17:03:00,6.1,3.1,30.26,WSW,255,4.0,6.0,87,0.00,,,0.00,LWC V2.11 B50,2013-01-22 22:03:00,
2013-01-22 17:08:00,6.1,3.1,30.26,NW,306,4.0,4.0,87,0.00,,,0.00,LWC V2.11 B50,2013-01-22 22:08:00,
2013-01-22 17:13:00,6.0,3.0,30.26,North,356,0.0,3.0,87,0.00,,,0.00,LWC V2.11 B50,2013-01-22 22:13:00,
2013-01-22 17:18:00,6.1,3.1,30.26,WNW,295,0.0,6.0,87,0.00,,,0.00,LWC V2.11 B50,2013-01-22 22:18:00,
2013-01-22 17:23:00,6.1,3.1,30.26,ESE,121,0.0,4.0,87,0.00,,,0.00,LWC V2.11 B50,2013-01-22 22:23:00,
2013-01-22 17:28:00,6.0,3.0,30.26,WNW,297,5.0,6.0,87,0.00,,,0.00,LWC V2.11 B50,2013-01-22 22:28:00,
2013-01-22 17:33:00,6.0,3.0,30.26,West,271,0.0,2.0,87,0.00,,,0.00,LWC V2.11 B50,2013-01-22 22:33:00,
2013-01-22 17:38:00,5.9,2.9,30.26,WNW,293,4.0,4.0,87,0.00,,,0.00,LWC V2.11 B50,2013-01-22 22:38:00,
2013-01-22 17:43:00,5.8,2.8,30.26,SW,225,6.0,7.0,87,0.00,,,0.00,LWC V2.11 B50,2013-01-22 22:43:00,
2013-01-22 17:48:00,5.8,2.5,30.26,WNW,293,0.0,2.0,86,0.00,,,0.00,LWC V2.11 B50,2013-01-22 22:48:00,
2013-01-22 17:53:00,5.7,2.7,30.26,West,276,3.0,9.0,87,0.00,,,0.00,LWC V2.11 B50,2013-01-22 22:53:00,
2013-01-22 17:58:00,5.7,2.7,30.26,NNW,340,1.0,2.0,87,0.00,,,0.00,LWC V2.11 B50,2013-01-22 22:58:00,
2013-01-22 18:03:00,5.6,2.6,30.26,West,266,6.0,11.0,87,0.00,,,0.00,LWC V2.11 B50,2013-01-22 23:03:00,
2013-01-22 18:08:00,5.5,2.2,30.26,WNW,290,3.0,7.0,86,0.00,,,0.00,LWC V2.11 B50,2013-01-22 23:08:00,
2013-01-22 18:13:00,5.5,2.2,30.26,West,277,3.0,8.0,86,0.00,,,0.00,LWC V2.11 B50,2013-01-22 23:13:00,
2013-01-22 18:18:00,5.5,2.0,30.26,WNW,284,2.0,8.0,85,0.00,,,0.00,LWC V2.11 B50,2013-01-22 23:18:00,
2013-01-22 18:23:00,5.4,2.1,30.26,West,280,6.0,6.0,86,0.00,,,0.00,LWC V2.11 B50,2013-01-22 23:23:00,
2013-01-22 18:28:00,5.4,1.9,30.26,West,280,1.0,8.0,85,0.00,,,0.00,LWC V2.11 B50,2013-01-22 23:28:00,
2013-01-22 18:33:00,5.3,1.5,30.26,SW,233,4.0,12.0,84,0.00,,,0.00,LWC V2.11 B50,2013-01-22 23:33:00,
2013-01-22 18:38:00,5.2,1.4,30.26,WNW,294,2.0,7.0,84,0.00,,,0.00,LWC V2.11 B50,2013-01-22 23:38:00,
2013-01-22 18:43:00,5.2,1.4,30.27,WSW,250,4.0,4.0,84,0.00,,,0.00,LWC V2.11 B50,2013-01-22 23:43:00,
2013-01-22 18:48:00,5.1,1.1,30.27,WSW,255,6.0,9.0,83,0.00,,,0.00,LWC V2.11 B50,2013-01-22 23:48:00,
2013-01-22 18:53:00,5.1,1.1,30.27,West,280,4.0,9.0,83,0.00,,,0.00,LWC V2.11 B50,2013-01-22 23:53:00,
2013-01-22 18:58:00,5.1,1.3,30.27,WNW,285,1.0,2.0,84,0.00,,,0.00,LWC V2.11 B50,2013-01-22 23:58:00,
2013-01-22 19:03:00,5.1,1.3,30.27,NNW,333,2.0,6.0,84,0.00,,,0.00,LWC V2.11 B50,2013-01-23 00:03:00,
2013-01-22 19:08:00,5.1,1.3,30.27,West,272,2.0,5.0,84,0.00,,,0.00,LWC V2.11 B50,2013-01-23 00:08:00,
2013-01-22 19:13:00,5.2,1.7,30.27,SSW,200,1.0,4.0,85,0.00,,,0.00,LWC V2.11 B50,2013-01-23 00:13:00,
2013-01-22 19:18:00,5.1,1.6,30.27,WSW,257,3.0,8.0,85,0.00,,,0.00,LWC V2.11 B50,2013-01-23 00:18:00,
2013-01-22 19:23:00,5.2,1.7,30.27,West,267,2.0,3.0,85,0.00,,,0.00,LWC V2.11 B50,2013-01-23 00:23:00,
2013-01-22 19:28:00,5.2,1.9,30.27,SW,224,0.0,4.0,86,0.00,,,0.00,LWC V2.11 B50,2013-01-23 00:28:00,
2013-01-22 19:33:00,5.2,1.9,30.27,SSW,209,4.0,4.0,86,0.00,,,0.00,LWC V2.11 B50,2013-01-23 00:33:00,
2013-01-22 19:38:00,5.1,1.8,30.27,North,352,3.0,8.0,86,0.00,,,0.00,LWC V2.11 B50,2013-01-23 00:38:00,
2013-01-22 19:43:00,5.2,2.2,30.27,ENE,75,1.0,9.0,87,0.00,,,0.00,LWC V2.11 B50,2013-01-23 00:43:00,
2013-01-22 19:48:00,5.2,2.2,30.27,WNW,284,1.0,3.0,87,0.00,,,0.00,LWC V2.11 B50,2013-01-23 00:48:00,
2013-01-22 19:53:00,5.2,2.2,30.27,WSW,248,1.0,6.0,87,0.00,,,0.00,LWC V2.11 B50,2013-01-23 00:53:00,
2013-01-22 19:58:00,5.3,2.3,30.27,NW,312,0.0,1.0,87,0.00,,,0.00,LWC V2.11 B50,2013-01-23 00:58:00,
2013-01-22 20:03:00,5.3,2.3,30.27,NW,304,2.0,5.0,87,0.00,,,0.00,LWC V2.11 B50,2013-01-23 01:03:00,
2013-01-22 20:08:00,5.3,2.3,30.27,SW,232,1.0,10.0,87,0.00,,,0.00,LWC V2.11 B50,2013-01-23 01:08:00,
2013-01-22 20:13:00,5.4,2.4,30.27,SW,224,1.0,2.0,87,0.00,,,0.00,LWC V2.11 B50,2013-01-23 01:13:00,
2013-01-22 20:18:00,5.4,2.4,30.27,WNW,283,3.0,7.0,87,0.00,,,0.00,LWC V2.11 B50,2013-01-23 01:18:00,
2013-01-22 20:23:00,5.4,2.4,30.27,WNW,295,4.0,9.0,87,0.00,,,0.00,LWC V2.11 B50,2013-01-23 01:23:00,
2013-01-22 20:28:00,5.4,2.4,30.27,WNW,284,2.0,7.0,87,0.00,,,0.00,LWC V2.11 B50,2013-01-23 01:28:00,
2013-01-22 20:33:00,5.4,2.4,30.27,WSW,240,4.0,6.0,87,0.00,,,0.00,LWC V2.11 B50,2013-01-23 01:33:00,
2013-01-22 20:38:00,5.4,2.4,30.27,WNW,290,1.0,3.0,87,0.00,,,0.00,LWC V2.11 B50,2013-01-23 01:38:00,
2013-01-22 20:43:00,5.5,2.5,30.27,WNW,302,0.0,4.0,87,0.00,,,0.00,LWC V2.11 B50,2013-01-23 01:43:00,
2013-01-22 20:48:00,5.5,2.7,30.27,West,266,0.0,5.0,88,0.00,,,0.00,LWC V2.11 B50,2013-01-23 01:48:00,
2013-01-22 20:53:00,5.6,2.8,30.28,West,267,0.0,2.0,88,0.00,,,0.00,LWC V2.11 B50,2013-01-23 01:53:00,
2013-01-22 20:58:00,5.6,2.8,30.27,WNW,295,0.0,2.0,88,0.00,,,0.00,LWC V2.11 B50,2013-01-23 01:58:00,
2013-01-22 21:03:00,5.7,2.9,30.28,SW,232,2.0,6.0,88,0.00,,,0.00,LWC V2.11 B50,2013-01-23 02:03:00,
2013-01-22 21:08:00,5.8,3.0,30.27,West,280,2.0,10.0,88,0.00,,,0.00,LWC V2.11 B50,2013-01-23 02:08:00,
2013-01-22 21:13:00,5.8,3.0,30.27,SW,236,0.0,6.0,88,0.00,,,0.00,LWC V2.11 B50,2013-01-23 02:13:00,
2013-01-22 21:18:00,5.8,3.0,30.28,NW,321,3.0,6.0,88,0.00,,,0.00,LWC V2.11 B50,2013-01-23 02:18:00,
2013-01-22 21:23:00,5.8,3.0,30.27,NW,305,0.0,6.0,88,0.00,,,0.00,LWC V2.11 B50,2013-01-23 02:23:00,
2013-01-22 21:28:00,5.7,2.9,30.27,WSW,253,0.0,1.0,88,0.00,,,0.00,LWC V2.11 B50,2013-01-23 02:28:00,
2013-01-22 21:33:00,5.7,2.9,30.27,SSE,148,0.0,5.0,88,0.00,,,0.00,LWC V2.11 B50,2013-01-23 02:33:00,
2013-01-22 21:38:00,5.7,2.9,30.27,West,273,1.0,5.0,88,0.00,,,0.00,LWC V2.11 B50,2013-01-23 02:38:00,
2013-01-22 21:44:00,5.7,2.9,30.27,West,266,2.0,4.0,88,0.00,,,0.00,LWC V2.11 B50,2013-01-23 02:44:00,
2013-01-22 21:49:00,5.6,2.8,30.27,West,262,4.0,4.0,88,0.00,,,0.00,LWC V2.11 B50,2013-01-23 02:49:00,
2013-01-22 21:54:00,5.7,2.9,30.27,WNW,291,1.0,2.0,88,0.00,,,0.00,LWC V2.11 B50,2013-01-23 02:54:00,
2013-01-22 21:59:00,5.7,2.9,30.27,WNW,283,4.0,4.0,88,0.00,,,0.00,LWC V2.11 B50,2013-01-23 02:59:00,
2013-01-22 22:04:00,5.7,2.9,30.27,West,269,1.0,3.0,88,0.00,,,0.00,LWC V2.11 B50,2013-01-23 03:04:00,
2013-01-22 22:09:00,5.8,3.0,30.27,West,277,2.0,5.0,88,0.00,,,0.00,LWC V2.11 B50,2013-01-23 03:09:00,
2013-01-22 22:14:00,5.8,3.0,30.27,WNW,288,0.0,1.0,88,0.00,,,0.00,LWC V2.11 B50,2013-01-23 03:14:00,
2013-01-22 22:19:00,5.8,3.3,30.27,West,262,0.0,1.0,89,0.00,,,0.00,LWC V2.11 B50,2013-01-23 03:19:00,
2013-01-22 22:24:00,5.8,3.0,30.27,West,267,3.0,5.0,88,0.00,,,0.00,LWC V2.11 B50,2013-01-23 03:24:00,
2013-01-22 22:29:00,5.8,3.0,30.27,WNW,293,0.0,2.0,88,0.00,,,0.00,LWC V2.11 B50,2013-01-23 03:29:00,
2013-01-22 22:34:00,5.8,3.0,30.27,West,276,1.0,3.0,88,0.00,,,0.00,LWC V2.11 B50,2013-01-23 03:34:00,
2013-01-22 22:39:00,5.8,3.0,30.27,WNW,300,1.0,4.0,88,0.00,,,0.00,LWC V2.11 B50,2013-01-23 03:39:00,
2013-01-22 22:44:00,5.8,3.0,30.27,WSW,248,0.0,2.0,88,0.00,,,0.00,LWC V2.11 B50,2013-01-23 03:44:00,
2013-01-22 22:49:00,5.8,3.0,30.27,WNW,283,1.0,4.0,88,0.00,,,0.00,LWC V2.11 B50,2013-01-23 03:49:00,
2013-01-22 22:54:00,5.8,3.0,30.27,SW,236,1.0,4.0,88,0.00,,,0.00,LWC V2.11 B50,2013-01-23 03:54:00,
2013-01-22 22:59:00,5.8,3.0,30.27,West,274,0.0,1.0,88,0.00,,,0.00,LWC V2.11 B50,2013-01-23 03:59:00,
2013-01-22 23:04:00,5.8,3.0,30.27,West,266,0.0,2.0,88,0.00,,,0.00,LWC V2.11 B50,2013-01-23 04:04:00,
2013-01-22 23:09:00,5.7,2.9,30.27,WNW,287,1.0,4.0,88,0.00,,,0.00,LWC V2.11 B50,2013-01-23 04:09:00,
2013-01-22 23:14:00,5.7,2.9,30.27,SSE,156,0.0,3.0,88,0.00,,,0.00,LWC V2.11 B50,2013-01-23 04:14:00,
2013-01-22 23:19:00,5.7,2.9,30.26,WSW,253,5.0,6.0,88,0.00,,,0.00,LWC V2.11 B50,2013-01-23 04:19:00,
2013-01-22 23:24:00,5.7,2.9,30.26,WNW,301,1.0,2.0,88,0.00,,,0.00,LWC V2.11 B50,2013-01-23 04:24:00,
2013-01-22 23:29:00,5.7,2.9,30.26,WSW,245,1.0,7.0,88,0.00,,,0.00,LWC V2.11 B50,2013-01-23 04:29:00,
2013-01-22 23:34:00,5.7,2.9,30.26,WSW,253,1.0,6.0,88,0.00,,,0.00,LWC V2.11 B50,2013-01-23 04:34:00,
2013-01-22 23:39:00,5.7,2.9,30.26,West,264,0.0,4.0,88,0.00,,,0.00,LWC V2.11 B50,2013-01-23 04:39:00,
2013-01-22 23:44:00,5.7,2.9,30.26,WSW,239,4.0,4.0,88,0.00,,,0.00,LWC V2.11 B50,2013-01-23 04:44:00,
2013-01-22 23:49:00,5.7,2.9,30.26,West,264,3.0,4.0,88,0.00,,,0.00,LWC V2.11 B50,2013-01-23 04:49:00,
2013-01-22 23:54:00,5.7,2.9,30.26,WSW,250,1.0,6.0,88,0.00,,,0.00,LWC V2.11 B50,2013-01-23 04:54:00,
2013-01-22 23:59:00,5.8,3.0,30.26,West,278,5.0,5.0,88,0.00,,,0.00,LWC V2.11 B50,2013-01-23 04:59:00,